Location: Fort Worth, Tx
(32.7431°N, 97.3695°W)
Time: 19:14:16
(UTC-04:00)

Max Valier Satellite - Pass Details

Date: 01 April 2023
Orbit: 444 x 458 km, 97.2° (Epoch: 04 June)

Event Time Altitude Azimuth Distance (km) Brightness Sun altitude
Rises 11:17:33 0° 355° (N) 2,501 ? 36.4°
Reaches altitude 10° 11:19:53 10° 340° (NNW) 1,626 ? 36.9°
Drops below altitude 10° 11:25:26 10° 234° (SW) 1,627 ? 38.0°
Enters shadow 12:01:34 -73° 173° (S) 12,668 ? 44.8°
Exits shadow 12:24:25 -57° 34° (NE) 11,281 ? 48.8°
Maximum altitude 21:50:29 49° 77° (ENE) 584 ? -13.4°
